Year,Month,Day,Hour,Minute,Value (Times are PST for temperature in C)
2012,09,17,00,00,12.60
2012,09,17,00,01,12.50
2012,09,17,00,02,12.50
2012,09,17,00,03,12.50
2012,09,17,00,04,12.50
2012,09,17,00,05,12.40
2012,09,17,00,06,12.40
2012,09,17,00,07,12.40
2012,09,17,00,08,12.40
2012,09,17,00,09,12.40
2012,09,17,00,10,12.40
2012,09,17,00,11,12.30
2012,09,17,00,12,12.30
2012,09,17,00,13,12.30
2012,09,17,00,14,12.30
2012,09,17,00,15,12.30
2012,09,17,00,16,12.20
2012,09,17,00,17,12.20
2012,09,17,00,18,12.20
2012,09,17,00,19,12.20
2012,09,17,00,20,12.20
2012,09,17,00,21,12.20
2012,09,17,00,22,12.20
2012,09,17,00,23,12.20
2012,09,17,00,24,12.20
2012,09,17,00,25,12.20
2012,09,17,00,26,12.20
2012,09,17,00,27,12.10
2012,09,17,00,28,12.10
2012,09,17,00,29,12.10
2012,09,17,00,30,12.10
2012,09,17,00,31,12.10
2012,09,17,00,32,12.10
2012,09,17,00,33,12.10
2012,09,17,00,34,12.00
2012,09,17,00,35,12.00
2012,09,17,00,36,12.00
2012,09,17,00,37,12.00
2012,09,17,00,38,12.00
2012,09,17,00,39,12.00
2012,09,17,00,40,12.00
2012,09,17,00,41,12.00
2012,09,17,00,42,12.00
2012,09,17,00,43,12.00
2012,09,17,00,44,12.00
2012,09,17,00,45,12.00
2012,09,17,00,46,12.00
2012,09,17,00,47,12.00
2012,09,17,00,48,12.10
2012,09,17,00,49,12.10
2012,09,17,00,50,12.10
2012,09,17,00,51,12.10
2012,09,17,00,52,12.10
2012,09,17,00,53,12.10
2012,09,17,00,54,12.10
2012,09,17,00,55,12.10
2012,09,17,00,56,12.00
2012,09,17,00,57,12.00
2012,09,17,00,58,12.00
2012,09,17,00,59,12.00
2012,09,17,01,00,12.00
2012,09,17,01,01,12.00
2012,09,17,01,02,12.00
2012,09,17,01,03,12.00
2012,09,17,01,04,12.00
2012,09,17,01,05,11.90
2012,09,17,01,06,11.90
2012,09,17,01,07,11.90
2012,09,17,01,08,11.90
2012,09,17,01,09,11.90
2012,09,17,01,10,11.90
2012,09,17,01,11,11.90
2012,09,17,01,12,11.90
2012,09,17,01,13,11.90
2012,09,17,01,14,11.90
2012,09,17,01,15,11.90
2012,09,17,01,16,11.90
2012,09,17,01,17,11.90
2012,09,17,01,18,11.90
2012,09,17,01,19,11.90
2012,09,17,01,20,11.80
2012,09,17,01,21,11.80
2012,09,17,01,22,11.80
2012,09,17,01,23,11.80
2012,09,17,01,24,11.80
2012,09,17,01,25,11.80
2012,09,17,01,26,11.80
2012,09,17,01,27,11.80
2012,09,17,01,28,11.70
2012,09,17,01,29,11.70
2012,09,17,01,30,11.70
2012,09,17,01,31,11.70
2012,09,17,01,32,11.70
2012,09,17,01,33,11.70
2012,09,17,01,34,11.70
2012,09,17,01,35,11.70
2012,09,17,01,36,11.70
2012,09,17,01,37,11.70
2012,09,17,01,38,11.70
2012,09,17,01,39,11.70
2012,09,17,01,40,11.60
2012,09,17,01,41,11.60
2012,09,17,01,42,11.60
2012,09,17,01,43,11.60
2012,09,17,01,44,11.60
2012,09,17,01,45,11.60
2012,09,17,01,46,11.50
2012,09,17,01,47,11.50
2012,09,17,01,48,11.50
2012,09,17,01,49,11.50
2012,09,17,01,50,11.40
2012,09,17,01,51,11.40
2012,09,17,01,52,11.40
2012,09,17,01,53,11.40
2012,09,17,01,54,11.40
2012,09,17,01,55,11.30
2012,09,17,01,56,11.30
2012,09,17,01,57,11.30
2012,09,17,01,58,11.40
2012,09,17,01,59,11.30
2012,09,17,02,00,11.30
2012,09,17,02,01,11.30
2012,09,17,02,02,11.30
2012,09,17,02,03,11.40
2012,09,17,02,04,11.40
2012,09,17,02,05,11.40
2012,09,17,02,06,11.40
2012,09,17,02,07,11.40
2012,09,17,02,08,11.40
2012,09,17,02,09,11.40
2012,09,17,02,10,11.40
2012,09,17,02,11,11.30
2012,09,17,02,12,11.30
2012,09,17,02,13,11.30
2012,09,17,02,14,11.30
2012,09,17,02,15,11.30
2012,09,17,02,16,11.30
2012,09,17,02,17,11.30
2012,09,17,02,18,11.30
2012,09,17,02,19,11.30
2012,09,17,02,20,11.20
2012,09,17,02,21,11.20
2012,09,17,02,22,11.20
2012,09,17,02,23,11.20
2012,09,17,02,24,11.20
2012,09,17,02,25,11.20
2012,09,17,02,26,11.20
2012,09,17,02,27,11.20
2012,09,17,02,28,11.20
2012,09,17,02,29,11.20
2012,09,17,02,30,11.10
2012,09,17,02,31,11.10
2012,09,17,02,32,11.10
2012,09,17,02,33,11.10
2012,09,17,02,34,11.10
2012,09,17,02,35,11.00
2012,09,17,02,36,11.00
2012,09,17,02,37,11.00
2012,09,17,02,38,10.90
2012,09,17,02,39,10.90
2012,09,17,02,40,10.90
2012,09,17,02,41,10.90
2012,09,17,02,42,10.90
2012,09,17,02,43,10.90
2012,09,17,02,44,10.90
2012,09,17,02,45,10.90
2012,09,17,02,46,10.90
2012,09,17,02,47,10.90
2012,09,17,02,48,10.90
2012,09,17,02,49,10.90
2012,09,17,02,50,10.90
2012,09,17,02,51,10.90
2012,09,17,02,52,10.90
2012,09,17,02,53,10.90
2012,09,17,02,54,10.90
2012,09,17,02,55,10.90
2012,09,17,02,56,10.90
2012,09,17,02,57,10.90
2012,09,17,02,58,10.90
2012,09,17,02,59,10.90
2012,09,17,03,00,10.90
2012,09,17,03,01,10.90
2012,09,17,03,02,10.90
2012,09,17,03,03,10.80
2012,09,17,03,04,10.80
2012,09,17,03,05,10.80
2012,09,17,03,06,10.80
2012,09,17,03,07,10.80
2012,09,17,03,08,10.80
2012,09,17,03,09,10.80
2012,09,17,03,10,10.80
2012,09,17,03,11,10.80
2012,09,17,03,12,10.80
2012,09,17,03,13,10.80
2012,09,17,03,14,10.80
2012,09,17,03,15,10.80
2012,09,17,03,16,10.80
2012,09,17,03,17,10.80
2012,09,17,03,18,10.80
2012,09,17,03,19,10.80
2012,09,17,03,20,10.80
2012,09,17,03,21,10.80
2012,09,17,03,22,10.80
2012,09,17,03,23,10.80
2012,09,17,03,24,10.80
2012,09,17,03,25,10.80
2012,09,17,03,26,10.80
2012,09,17,03,27,10.80
2012,09,17,03,28,10.80
2012,09,17,03,29,10.80
2012,09,17,03,30,10.80
2012,09,17,03,31,10.80
2012,09,17,03,32,10.80
2012,09,17,03,33,10.80
2012,09,17,03,34,10.80
2012,09,17,03,35,10.80
2012,09,17,03,36,10.80
2012,09,17,03,37,10.80
2012,09,17,03,38,10.80
2012,09,17,03,39,10.80
2012,09,17,03,40,10.80
2012,09,17,03,41,10.80
2012,09,17,03,42,10.70
2012,09,17,03,43,10.70
2012,09,17,03,44,10.70
2012,09,17,03,45,10.70
2012,09,17,03,46,10.70
2012,09,17,03,47,10.60
2012,09,17,03,48,10.60
2012,09,17,03,49,10.50
2012,09,17,03,50,10.50
2012,09,17,03,51,10.40
2012,09,17,03,52,10.40
2012,09,17,03,53,10.40
2012,09,17,03,54,10.30
2012,09,17,03,55,10.30
2012,09,17,03,56,10.30
2012,09,17,03,57,10.30
2012,09,17,03,58,10.30
2012,09,17,03,59,10.30
2012,09,17,04,00,10.20
2012,09,17,04,01,10.20
2012,09,17,04,02,10.20
2012,09,17,04,03,10.20
2012,09,17,04,04,10.20
2012,09,17,04,05,10.20
2012,09,17,04,06,10.20
2012,09,17,04,07,10.10
2012,09,17,04,08,10.10
2012,09,17,04,09,10.10
2012,09,17,04,10,10.10
2012,09,17,04,11,10.10
2012,09,17,04,12,10.10
2012,09,17,04,13,10.10
2012,09,17,04,14,10.10
2012,09,17,04,15,10.10
2012,09,17,04,16,10.10
2012,09,17,04,17,10.10
2012,09,17,04,18,10.10
2012,09,17,04,19,10.00
2012,09,17,04,20,10.00
2012,09,17,04,21,10.00
2012,09,17,04,22,10.00
2012,09,17,04,23,9.90
2012,09,17,04,24,9.90
2012,09,17,04,25,9.90
2012,09,17,04,26,9.90
2012,09,17,04,27,9.90
2012,09,17,04,28,9.90
2012,09,17,04,29,9.90
2012,09,17,04,30,9.90
2012,09,17,04,31,9.90
2012,09,17,04,32,9.90
2012,09,17,04,33,9.90
2012,09,17,04,34,9.90
2012,09,17,04,35,9.90
2012,09,17,04,36,9.90
2012,09,17,04,37,9.90
2012,09,17,04,38,9.90
2012,09,17,04,39,9.90
2012,09,17,04,40,9.80
2012,09,17,04,41,9.80
2012,09,17,04,42,9.80
2012,09,17,04,43,9.80
2012,09,17,04,44,9.80
2012,09,17,04,45,9.80
2012,09,17,04,46,9.80
2012,09,17,04,47,9.80
2012,09,17,04,48,9.80
2012,09,17,04,49,9.80
2012,09,17,04,50,9.80
2012,09,17,04,51,9.80
2012,09,17,04,52,9.80
2012,09,17,04,53,9.80
2012,09,17,04,54,9.80
2012,09,17,04,55,9.80
2012,09,17,04,56,9.80
2012,09,17,04,57,9.80
2012,09,17,04,58,9.70
2012,09,17,04,59,9.70
2012,09,17,05,00,9.70
2012,09,17,05,01,9.70
2012,09,17,05,02,9.60
2012,09,17,05,03,9.60
2012,09,17,05,04,9.60
2012,09,17,05,05,9.60
2012,09,17,05,06,9.60
2012,09,17,05,07,9.60
2012,09,17,05,08,9.60
2012,09,17,05,09,9.60
2012,09,17,05,10,9.70
2012,09,17,05,11,9.70
2012,09,17,05,12,9.70
2012,09,17,05,13,9.70
2012,09,17,05,14,9.70
2012,09,17,05,15,9.70
2012,09,17,05,16,9.70
2012,09,17,05,17,9.70
2012,09,17,05,18,9.70
2012,09,17,05,19,9.70
2012,09,17,05,20,9.70
2012,09,17,05,21,9.70
2012,09,17,05,22,9.70
2012,09,17,05,23,9.70
2012,09,17,05,24,9.70
2012,09,17,05,25,9.70
2012,09,17,05,26,9.70
2012,09,17,05,27,9.70
2012,09,17,05,28,9.70
2012,09,17,05,29,9.70
2012,09,17,05,30,9.70
2012,09,17,05,31,9.70
2012,09,17,05,32,9.70
2012,09,17,05,33,9.70
2012,09,17,05,34,9.70
2012,09,17,05,35,9.70
2012,09,17,05,36,9.70
2012,09,17,05,37,9.70
2012,09,17,05,38,9.70
2012,09,17,05,39,9.80
2012,09,17,05,40,9.80
2012,09,17,05,41,9.80
2012,09,17,05,42,9.90
2012,09,17,05,43,9.90
2012,09,17,05,44,10.00
2012,09,17,05,45,10.00
2012,09,17,05,46,10.00
2012,09,17,05,47,10.10
2012,09,17,05,48,10.10
2012,09,17,05,49,10.10
2012,09,17,05,50,10.10
2012,09,17,05,51,10.10
2012,09,17,05,52,10.10
2012,09,17,05,53,10.10
2012,09,17,05,54,10.10
2012,09,17,05,55,10.00
2012,09,17,05,56,9.90
2012,09,17,05,57,9.90
2012,09,17,05,58,9.90
2012,09,17,05,59,9.80
2012,09,17,06,00,9.80
2012,09,17,06,01,9.80
2012,09,17,06,02,9.80
2012,09,17,06,03,9.80
2012,09,17,06,04,9.80
2012,09,17,06,05,9.70
2012,09,17,06,06,9.70
2012,09,17,06,07,9.70
2012,09,17,06,08,9.70
2012,09,17,06,09,9.70
2012,09,17,06,10,9.70
2012,09,17,06,11,9.70
2012,09,17,06,12,9.70
2012,09,17,06,13,9.70
2012,09,17,06,14,9.70
2012,09,17,06,15,9.70
2012,09,17,06,16,9.70
2012,09,17,06,17,9.70
2012,09,17,06,18,9.60
2012,09,17,06,19,9.60
2012,09,17,06,20,9.60
2012,09,17,06,21,9.60
2012,09,17,06,22,9.60
2012,09,17,06,23,9.50
2012,09,17,06,24,9.50
2012,09,17,06,25,9.50
2012,09,17,06,26,9.40
2012,09,17,06,27,9.40
2012,09,17,06,28,9.40
2012,09,17,06,29,9.40
2012,09,17,06,30,9.40
2012,09,17,06,31,9.40
2012,09,17,06,32,9.30
2012,09,17,06,33,9.30
2012,09,17,06,34,9.30
2012,09,17,06,35,9.30
2012,09,17,06,36,9.20
2012,09,17,06,37,9.20
2012,09,17,06,38,9.20
2012,09,17,06,39,9.10
2012,09,17,06,40,9.10
2012,09,17,06,41,9.10
2012,09,17,06,42,9.10
2012,09,17,06,43,9.10
2012,09,17,06,44,9.10
2012,09,17,06,45,9.10
2012,09,17,06,46,9.10
2012,09,17,06,47,9.10
2012,09,17,06,48,9.10
2012,09,17,06,49,9.10
2012,09,17,06,50,9.10
2012,09,17,06,51,9.00
2012,09,17,06,52,9.00
2012,09,17,06,53,9.00
2012,09,17,06,54,8.90
2012,09,17,06,55,8.90
2012,09,17,06,56,8.90
2012,09,17,06,57,8.80
2012,09,17,06,58,8.80
2012,09,17,06,59,8.80
2012,09,17,07,00,8.80
2012,09,17,07,01,8.80
2012,09,17,07,02,8.70
2012,09,17,07,03,8.70
2012,09,17,07,04,8.70
2012,09,17,07,05,8.70
2012,09,17,07,06,8.70
2012,09,17,07,07,8.70
2012,09,17,07,08,8.70
2012,09,17,07,09,8.70
2012,09,17,07,10,8.60
2012,09,17,07,11,8.60
2012,09,17,07,12,8.60
2012,09,17,07,13,8.60
2012,09,17,07,14,8.60
2012,09,17,07,15,8.60
2012,09,17,07,16,8.50
2012,09,17,07,17,8.50
2012,09,17,07,18,8.50
2012,09,17,07,19,8.50
2012,09,17,07,20,8.50
2012,09,17,07,21,8.40
2012,09,17,07,22,8.40
2012,09,17,07,23,8.50
2012,09,17,07,24,8.50
2012,09,17,07,25,8.50
2012,09,17,07,26,8.50
2012,09,17,07,27,8.50
2012,09,17,07,28,8.50
2012,09,17,07,29,8.50
2012,09,17,07,30,8.50
2012,09,17,07,31,8.50
2012,09,17,07,32,8.50
2012,09,17,07,33,8.50
2012,09,17,07,34,8.60
2012,09,17,07,35,8.60
2012,09,17,07,36,8.60
2012,09,17,07,37,8.60
2012,09,17,07,38,8.70
2012,09,17,07,39,8.70
2012,09,17,07,40,8.80
2012,09,17,07,41,8.80
2012,09,17,07,42,8.80
2012,09,17,07,43,8.90
2012,09,17,07,44,8.90
2012,09,17,07,45,9.00
2012,09,17,07,46,9.00
2012,09,17,07,47,9.10
2012,09,17,07,48,9.10
2012,09,17,07,49,9.20
2012,09,17,07,50,9.20
2012,09,17,07,51,9.20
2012,09,17,07,52,9.30
2012,09,17,07,53,9.30
2012,09,17,07,54,9.40
2012,09,17,07,55,9.40
2012,09,17,07,56,9.50
2012,09,17,07,57,9.60
2012,09,17,07,58,9.60
2012,09,17,07,59,9.70
2012,09,17,08,00,9.80
2012,09,17,08,01,9.80
2012,09,17,08,02,9.90
2012,09,17,08,03,10.00
2012,09,17,08,04,10.10
2012,09,17,08,05,10.10
2012,09,17,08,06,10.20
2012,09,17,08,07,10.30
2012,09,17,08,08,10.40
2012,09,17,08,09,10.40
2012,09,17,08,10,10.50
2012,09,17,08,11,10.60
2012,09,17,08,12,10.60
2012,09,17,08,13,10.60
2012,09,17,08,14,10.60
2012,09,17,08,15,10.70
2012,09,17,08,16,10.80
2012,09,17,08,17,10.80
2012,09,17,08,18,10.90
2012,09,17,08,19,11.00
2012,09,17,08,20,11.20
2012,09,17,08,21,11.40
2012,09,17,08,22,11.50
2012,09,17,08,23,11.70
2012,09,17,08,24,11.80
2012,09,17,08,25,11.90
2012,09,17,08,26,12.00
2012,09,17,08,27,12.10
2012,09,17,08,28,12.20
2012,09,17,08,29,12.20
2012,09,17,08,30,12.30
2012,09,17,08,31,12.30
2012,09,17,08,32,12.40
2012,09,17,08,33,12.50
2012,09,17,08,34,12.60
2012,09,17,08,35,12.70
2012,09,17,08,36,12.70
2012,09,17,08,37,12.80
2012,09,17,08,38,13.00
2012,09,17,08,39,13.10
2012,09,17,08,40,13.20
2012,09,17,08,41,13.30
2012,09,17,08,42,13.40
2012,09,17,08,43,13.50
2012,09,17,08,44,13.60
2012,09,17,08,45,13.70
2012,09,17,08,46,13.80
2012,09,17,08,47,13.80
2012,09,17,08,48,13.90
2012,09,17,08,49,13.90
2012,09,17,08,50,14.00
2012,09,17,08,51,14.10
2012,09,17,08,52,14.20
2012,09,17,08,53,14.30
2012,09,17,08,54,14.40
2012,09,17,08,55,14.50
2012,09,17,08,56,14.60
2012,09,17,08,57,14.70
2012,09,17,08,58,14.80
2012,09,17,08,59,14.90
2012,09,17,09,00,15.00
2012,09,17,09,01,15.00
2012,09,17,09,02,15.00
2012,09,17,09,03,15.00
2012,09,17,09,04,15.10
2012,09,17,09,05,15.20
2012,09,17,09,06,15.30
2012,09,17,09,07,15.30
2012,09,17,09,08,15.40
2012,09,17,09,09,15.40
2012,09,17,09,10,15.50
2012,09,17,09,11,15.60
2012,09,17,09,12,15.60
2012,09,17,09,13,15.70
2012,09,17,09,14,15.80
2012,09,17,09,15,15.80
2012,09,17,09,16,15.90
2012,09,17,09,17,16.00
2012,09,17,09,18,16.00
2012,09,17,09,19,16.10
2012,09,17,09,20,16.20
2012,09,17,09,21,16.30
2012,09,17,09,22,16.40
2012,09,17,09,23,16.50
2012,09,17,09,24,16.60
2012,09,17,09,25,16.80
2012,09,17,09,26,16.90
2012,09,17,09,27,17.00
2012,09,17,09,28,17.20
2012,09,17,09,29,17.30
2012,09,17,09,30,17.40
2012,09,17,09,31,17.60
2012,09,17,09,32,17.70
2012,09,17,09,33,17.80
2012,09,17,09,34,17.90
2012,09,17,09,35,18.00
2012,09,17,09,36,18.20
2012,09,17,09,37,18.30
2012,09,17,09,38,18.40
2012,09,17,09,39,18.50
2012,09,17,09,40,18.60
2012,09,17,09,41,18.70
2012,09,17,09,42,18.80
2012,09,17,09,43,18.80
2012,09,17,09,44,18.90
2012,09,17,09,45,19.00
2012,09,17,09,46,19.10
2012,09,17,09,47,19.10
2012,09,17,09,48,19.20
2012,09,17,09,49,19.20
2012,09,17,09,50,19.30
2012,09,17,09,51,19.40
2012,09,17,09,52,19.50
2012,09,17,09,53,19.50
2012,09,17,09,54,19.60
2012,09,17,09,55,19.60
2012,09,17,09,56,19.60
2012,09,17,09,57,19.70
2012,09,17,09,58,19.70
2012,09,17,09,59,19.80
2012,09,17,10,00,19.80
2012,09,17,10,01,19.90
2012,09,17,10,02,20.00
2012,09,17,10,03,20.00
2012,09,17,10,04,20.10
2012,09,17,10,05,20.20
2012,09,17,10,06,20.20
2012,09,17,10,07,20.20
2012,09,17,10,08,20.30
2012,09,17,10,09,20.30
2012,09,17,10,10,20.30
2012,09,17,10,11,20.40
2012,09,17,10,12,20.40
2012,09,17,10,13,20.50
2012,09,17,10,14,20.60
2012,09,17,10,15,20.70
2012,09,17,10,16,20.80
2012,09,17,10,17,20.80
2012,09,17,10,18,20.90
2012,09,17,10,19,20.90
2012,09,17,10,20,20.90
2012,09,17,10,21,21.00
2012,09,17,10,22,21.10
2012,09,17,10,23,21.10
2012,09,17,10,24,21.10
2012,09,17,10,25,21.20
2012,09,17,10,26,21.20
2012,09,17,10,27,21.30
2012,09,17,10,28,21.40
2012,09,17,10,29,21.50
2012,09,17,10,30,21.50
2012,09,17,10,31,21.60
2012,09,17,10,32,21.60
2012,09,17,10,33,21.70
2012,09,17,10,34,21.70
2012,09,17,10,35,21.70
2012,09,17,10,36,21.80
2012,09,17,10,37,21.80
2012,09,17,10,38,21.80
2012,09,17,10,39,21.80
2012,09,17,10,40,21.90
2012,09,17,10,41,22.00
2012,09,17,10,42,22.10
2012,09,17,10,43,22.20
2012,09,17,10,44,22.20
2012,09,17,10,45,22.30
2012,09,17,10,46,22.30
2012,09,17,10,47,22.40
2012,09,17,10,48,22.40
2012,09,17,10,49,22.50
2012,09,17,10,50,22.50
2012,09,17,10,51,22.60
2012,09,17,10,52,22.70
2012,09,17,10,53,22.70
2012,09,17,10,54,22.80
2012,09,17,10,55,22.80
2012,09,17,10,56,22.80
2012,09,17,10,57,22.80
2012,09,17,10,58,22.80
2012,09,17,10,59,22.90
2012,09,17,11,00,23.00
2012,09,17,11,01,23.00
2012,09,17,11,02,23.10
2012,09,17,11,03,23.10
2012,09,17,11,04,23.10
2012,09,17,11,05,23.20
2012,09,17,11,06,23.20
2012,09,17,11,07,23.20
2012,09,17,11,08,23.20
2012,09,17,11,09,23.20
2012,09,17,11,10,23.20
2012,09,17,11,11,23.30
2012,09,17,11,12,23.40
2012,09,17,11,13,23.50
2012,09,17,11,14,23.50
2012,09,17,11,15,23.60
2012,09,17,11,16,23.60
2012,09,17,11,17,23.70
2012,09,17,11,18,23.80
2012,09,17,11,19,23.90
2012,09,17,11,20,24.00
2012,09,17,11,21,24.10
2012,09,17,11,22,24.10
2012,09,17,11,23,24.10
2012,09,17,11,24,24.00
2012,09,17,11,25,23.90
2012,09,17,11,26,23.90
2012,09,17,11,27,23.90
2012,09,17,11,28,23.80
2012,09,17,11,29,23.80
2012,09,17,11,30,23.70
2012,09,17,11,31,23.70
2012,09,17,11,32,23.80
2012,09,17,11,33,23.80
2012,09,17,11,34,23.90
2012,09,17,11,35,23.90
2012,09,17,11,36,23.90
2012,09,17,11,37,23.90
2012,09,17,11,38,23.90
2012,09,17,11,39,23.90
2012,09,17,11,40,23.90
2012,09,17,11,41,23.90
2012,09,17,11,42,24.00
2012,09,17,11,43,24.00
2012,09,17,11,44,24.10
2012,09,17,11,45,24.00
2012,09,17,11,46,24.00
2012,09,17,11,47,24.10
2012,09,17,11,48,24.20
2012,09,17,11,49,24.30
2012,09,17,11,50,24.30
2012,09,17,11,51,24.40
2012,09,17,11,52,24.50
2012,09,17,11,53,24.50
2012,09,17,11,54,24.50
2012,09,17,11,55,24.50
2012,09,17,11,56,24.50
2012,09,17,11,57,24.40
2012,09,17,11,58,24.30
2012,09,17,11,59,24.30
2012,09,17,12,00,24.30
2012,09,17,12,01,24.20
2012,09,17,12,02,24.10
2012,09,17,12,03,24.10
2012,09,17,12,04,24.00
2012,09,17,12,05,24.00
2012,09,17,12,06,23.90
2012,09,17,12,07,23.90
2012,09,17,12,08,23.80
2012,09,17,12,09,23.80
2012,09,17,12,10,23.70
2012,09,17,12,11,23.70
2012,09,17,12,12,23.70
2012,09,17,12,13,23.70
2012,09,17,12,14,23.60
2012,09,17,12,15,23.50
2012,09,17,12,16,23.50
2012,09,17,12,17,23.40
2012,09,17,12,18,23.50
2012,09,17,12,19,23.50
2012,09,17,12,20,23.50
2012,09,17,12,21,23.60
2012,09,17,12,22,23.60
2012,09,17,12,23,23.60
2012,09,17,12,24,23.60
2012,09,17,12,25,23.60
2012,09,17,12,26,23.50
2012,09,17,12,27,23.60
2012,09,17,12,28,23.60
2012,09,17,12,29,23.70
2012,09,17,12,30,23.80
2012,09,17,12,31,23.90
2012,09,17,12,32,24.10
2012,09,17,12,33,24.20
2012,09,17,12,34,24.30
2012,09,17,12,35,24.40
2012,09,17,12,36,24.40
2012,09,17,12,37,24.50
2012,09,17,12,38,24.50
2012,09,17,12,39,24.40
2012,09,17,12,40,24.30
2012,09,17,12,41,24.30
2012,09,17,12,42,24.30
2012,09,17,12,43,24.20
2012,09,17,12,44,24.10
2012,09,17,12,45,24.10
2012,09,17,12,46,24.00
2012,09,17,12,47,23.90
2012,09,17,12,48,24.00
2012,09,17,12,49,24.10
2012,09,17,12,50,24.20
2012,09,17,12,51,24.30
2012,09,17,12,52,24.40
2012,09,17,12,53,24.40
2012,09,17,12,54,24.50
2012,09,17,12,55,24.60
2012,09,17,12,56,24.70
2012,09,17,12,57,24.80
2012,09,17,12,58,24.80
2012,09,17,12,59,24.90
2012,09,17,13,00,24.90
2012,09,17,13,01,24.90
2012,09,17,13,02,24.90
2012,09,17,13,03,24.90
2012,09,17,13,04,24.90
2012,09,17,13,05,25.00
2012,09,17,13,06,25.10
2012,09,17,13,07,25.20
2012,09,17,13,08,25.20
2012,09,17,13,09,25.20
2012,09,17,13,10,25.20
2012,09,17,13,11,25.20
2012,09,17,13,12,25.30
2012,09,17,13,13,25.30
2012,09,17,13,14,25.30
2012,09,17,13,15,25.40
2012,09,17,13,16,25.40
2012,09,17,13,17,25.60
2012,09,17,13,18,25.70
2012,09,17,13,19,25.80
2012,09,17,13,20,25.80
2012,09,17,13,21,25.80
2012,09,17,13,22,25.70
2012,09,17,13,23,25.70
2012,09,17,13,24,25.60
2012,09,17,13,25,25.60
2012,09,17,13,26,25.60
2012,09,17,13,27,25.70
2012,09,17,13,28,25.70
2012,09,17,13,29,25.70
2012,09,17,13,30,25.80
2012,09,17,13,31,25.80
2012,09,17,13,32,25.80
2012,09,17,13,33,25.70
2012,09,17,13,34,25.70
2012,09,17,13,35,25.60
2012,09,17,13,36,25.50
2012,09,17,13,37,25.50
2012,09,17,13,38,25.50
2012,09,17,13,39,25.40
2012,09,17,13,40,25.40
2012,09,17,13,41,25.40
2012,09,17,13,42,25.40
2012,09,17,13,43,25.40
2012,09,17,13,44,25.40
2012,09,17,13,45,25.50
2012,09,17,13,46,25.60
2012,09,17,13,47,25.60
2012,09,17,13,48,25.60
2012,09,17,13,49,25.60
2012,09,17,13,50,25.60
2012,09,17,13,51,25.60
2012,09,17,13,52,25.60
2012,09,17,13,53,25.70
2012,09,17,13,54,25.80
2012,09,17,13,55,25.90
2012,09,17,13,56,25.90
2012,09,17,13,57,25.90
2012,09,17,13,58,25.90
2012,09,17,13,59,25.90
2012,09,17,14,00,26.00
2012,09,17,14,01,26.10
2012,09,17,14,02,26.10
2012,09,17,14,03,26.20
2012,09,17,14,04,26.30
2012,09,17,14,05,26.40
2012,09,17,14,06,26.40
2012,09,17,14,07,26.40
2012,09,17,14,08,26.30
2012,09,17,14,09,26.30
2012,09,17,14,10,26.20
2012,09,17,14,11,26.10
2012,09,17,14,12,26.10
2012,09,17,14,13,26.10
2012,09,17,14,14,26.10
2012,09,17,14,15,26.10
2012,09,17,14,16,26.10
2012,09,17,14,17,26.10
2012,09,17,14,18,26.10
2012,09,17,14,19,26.10
2012,09,17,14,20,26.10
2012,09,17,14,21,26.10
2012,09,17,14,22,26.10
2012,09,17,14,23,26.10
2012,09,17,14,24,26.00
2012,09,17,14,25,26.00
2012,09,17,14,26,26.00
2012,09,17,14,27,26.00
2012,09,17,14,28,26.00
2012,09,17,14,29,25.90
2012,09,17,14,30,25.90
2012,09,17,14,31,25.90
2012,09,17,14,32,25.90
2012,09,17,14,33,25.90
2012,09,17,14,34,26.00
2012,09,17,14,35,26.00
2012,09,17,14,36,26.10
2012,09,17,14,37,26.10
2012,09,17,14,38,26.00
2012,09,17,14,39,25.90
2012,09,17,14,40,26.00
2012,09,17,14,41,26.10
2012,09,17,14,42,26.10
2012,09,17,14,43,26.10
2012,09,17,14,44,26.10
2012,09,17,14,45,26.10
2012,09,17,14,46,26.10
2012,09,17,14,47,26.10
2012,09,17,14,48,26.10
2012,09,17,14,49,26.10
2012,09,17,14,50,26.20
2012,09,17,14,51,26.20
2012,09,17,14,52,26.30
2012,09,17,14,53,26.30
2012,09,17,14,54,26.30
2012,09,17,14,55,26.30
2012,09,17,14,56,26.20
2012,09,17,14,57,26.20
2012,09,17,14,58,26.20
2012,09,17,14,59,26.20
2012,09,17,15,00,26.30
2012,09,17,15,01,26.30
2012,09,17,15,02,26.30
2012,09,17,15,03,26.40
2012,09,17,15,04,26.40
2012,09,17,15,05,26.50
2012,09,17,15,06,26.50
2012,09,17,15,07,26.60
2012,09,17,15,08,26.60
2012,09,17,15,09,26.60
2012,09,17,15,10,26.60
2012,09,17,15,11,26.60
2012,09,17,15,12,26.60
2012,09,17,15,13,26.60
2012,09,17,15,14,26.50
2012,09,17,15,15,26.50
2012,09,17,15,16,26.40
2012,09,17,15,17,26.40
2012,09,17,15,18,26.40
2012,09,17,15,19,26.50
2012,09,17,15,20,26.50
2012,09,17,15,21,26.60
2012,09,17,15,22,26.60
2012,09,17,15,23,26.60
2012,09,17,15,24,26.60
2012,09,17,15,25,26.50
2012,09,17,15,26,26.40
2012,09,17,15,27,26.50
2012,09,17,15,28,26.50
2012,09,17,15,29,26.60
2012,09,17,15,30,26.60
2012,09,17,15,31,26.60
2012,09,17,15,32,26.70
2012,09,17,15,33,26.70
2012,09,17,15,34,26.80
2012,09,17,15,35,26.80
2012,09,17,15,36,26.80
2012,09,17,15,37,26.80
2012,09,17,15,38,26.80
2012,09,17,15,39,26.80
2012,09,17,15,40,26.90
2012,09,17,15,41,26.90
2012,09,17,15,42,27.00
2012,09,17,15,43,27.00
2012,09,17,15,44,26.90
2012,09,17,15,45,26.80
2012,09,17,15,46,26.70
2012,09,17,15,47,26.70
2012,09,17,15,48,26.70
2012,09,17,15,49,26.70
2012,09,17,15,50,26.70
2012,09,17,15,51,26.70
2012,09,17,15,52,26.70
2012,09,17,15,53,26.70
2012,09,17,15,54,26.60
2012,09,17,15,55,26.50
2012,09,17,15,56,26.40
2012,09,17,15,57,26.40
2012,09,17,15,58,26.40
2012,09,17,15,59,26.40
2012,09,17,16,00,26.40
2012,09,17,16,01,26.30
2012,09,17,16,02,26.20
2012,09,17,16,03,26.10
2012,09,17,16,04,26.00
2012,09,17,16,05,26.00
2012,09,17,16,06,26.00
2012,09,17,16,07,26.00
2012,09,17,16,08,25.90
2012,09,17,16,09,25.90
2012,09,17,16,10,25.90
2012,09,17,16,11,25.90
2012,09,17,16,12,25.90
2012,09,17,16,13,25.90
2012,09,17,16,14,25.70
2012,09,17,16,15,25.60
2012,09,17,16,16,25.60
2012,09,17,16,17,25.50
2012,09,17,16,18,25.50
2012,09,17,16,19,25.60
2012,09,17,16,20,25.60
2012,09,17,16,21,25.50
2012,09,17,16,22,25.50
2012,09,17,16,23,25.50
2012,09,17,16,24,25.40
2012,09,17,16,25,25.40
2012,09,17,16,26,25.40
2012,09,17,16,27,25.30
2012,09,17,16,28,25.20
2012,09,17,16,29,25.10
2012,09,17,16,30,25.10
2012,09,17,16,31,25.00
2012,09,17,16,32,24.90
2012,09,17,16,33,24.90
2012,09,17,16,34,24.90
2012,09,17,16,35,24.90
2012,09,17,16,36,24.90
2012,09,17,16,37,25.00
2012,09,17,16,38,25.10
2012,09,17,16,39,25.00
2012,09,17,16,40,25.10
2012,09,17,16,41,25.10
2012,09,17,16,42,25.10
2012,09,17,16,43,25.20
2012,09,17,16,44,25.20
2012,09,17,16,45,25.30
2012,09,17,16,46,25.30
2012,09,17,16,47,25.20
2012,09,17,16,48,25.10
2012,09,17,16,49,25.10
2012,09,17,16,50,25.10
2012,09,17,16,51,25.10
2012,09,17,16,52,25.10
2012,09,17,16,53,25.00
2012,09,17,16,54,25.00
2012,09,17,16,55,25.10
2012,09,17,16,56,25.10
2012,09,17,16,57,25.10
2012,09,17,16,58,25.00
2012,09,17,16,59,24.90
2012,09,17,17,00,24.90
2012,09,17,17,01,24.90
2012,09,17,17,02,24.90
2012,09,17,17,03,24.80
2012,09,17,17,04,24.80
2012,09,17,17,05,24.80
2012,09,17,17,06,24.80
2012,09,17,17,07,24.70
2012,09,17,17,08,24.60
2012,09,17,17,09,24.50
2012,09,17,17,10,24.50
2012,09,17,17,11,24.50
2012,09,17,17,12,24.50
2012,09,17,17,13,24.50
2012,09,17,17,14,24.50
2012,09,17,17,15,24.50
2012,09,17,17,16,24.40
2012,09,17,17,17,24.40
2012,09,17,17,18,24.40
2012,09,17,17,19,24.40
2012,09,17,17,20,24.40
2012,09,17,17,21,24.40
2012,09,17,17,22,24.40
2012,09,17,17,23,24.40
2012,09,17,17,24,24.40
2012,09,17,17,25,24.40
2012,09,17,17,26,24.40
2012,09,17,17,27,24.40
2012,09,17,17,28,24.40